IISEREFA2 Weather Reports


time (UTC)temp
C
wind
direction
speed
KPH
gust
KPH
rain 1hr
cm
rain 24hr
cm
rain mn
cm
humidity
%
barometer
mb
20260507194534 13 0 0.0 1.6 0.00 0.00 0.00 76 1013.6
20260507193037 13 0 0.0 3.2 0.00 0.00 0.00 76 1013.2
20260507191535 13 0 0.0 3.2 0.00 0.00 0.00 77 1013.3
20260507190030 13 0 0.0 4.8 0.00 0.00 0.00 76 1013.2
20260507184530 13 0 0.0 3.2 0.00 0.03 0.00 76 1013.1
20260507183030 13 0 0.0 3.2 0.00 0.03 0.00 76 1013.1
20260507181530 13 0 0.0 0.0 0.00 0.03 0.00 76 1012.9
20260507180037 14 0 0.0 1.6 0.00 0.03 0.00 76 1012.8
20260507174538 14 0 0.0 0.0 0.00 0.03 0.00 75 1012.7
20260507173052 15 0 0.0 1.6 0.00 0.03 0.00 72 1012.7
20260507171538 16 0 0.0 4.8 0.00 0.03 0.00 67 1012.7
20260507170037 16 182 0.0 6.4 0.00 0.03 0.00 65 1012.8
20260507164535 17 0 0.0 6.4 0.00 0.03 0.00 67 1012.7
20260507163032 17 0 1.6 8.0 0.00 0.03 0.00 64 1012.9
20260507161540 17 184 0.0 6.4 0.00 0.03 0.00 64 1012.7
20260507160032 18 184 0.0 6.4 0.00 0.03 0.00 62 1012.8
20260507154532 18 184 1.6 6.4 0.00 0.03 0.00 63 1012.8
20260507153033 18 184 0.0 8.0 0.00 0.03 0.00 66 1012.9
20260507151530 18 187 0.0 6.4 0.00 0.03 0.00 65 1012.9
20260507150037 18 0 0.0 4.8 0.00 0.03 0.00 61 1012.9
20260507144532 18 187 0.0 6.4 0.00 0.03 0.00 62 1013.1
20260507143033 19 0 1.6 8.0 0.00 0.03 0.00 61 1013.2
20260507141545 19 187 1.6 9.7 0.00 0.03 0.00 63 1013.0
20260507140031 18 0 1.6 8.0 0.00 0.03 0.00 60 1013.2
20260507134534 19 183 0.0 6.4 0.00 0.03 0.00 58 1013.2
20260507133057 19 182 1.6 8.0 0.00 0.03 0.00 63 1013.5
20260507131530 17 178 3.2 9.7 0.00 0.03 0.00 68 1013.6
20260507130036 18 0 0.0 11.3 0.00 0.03 0.00 61 1013.5
20260507124530 18 188 1.6 11.3 0.00 0.08 0.00 62 1013.8
20260507123037 18 192 1.6 6.4 0.00 0.08 0.00 57 1013.8
20260507121533 18 190 0.0 8.0 0.00 0.08 0.00 66 1013.9
20260507120034 17 0 0.0 4.8 0.00 0.08 0.00 70 1013.9
20260507114530 17 190 1.6 6.4 0.00 0.08 0.00 67 1013.9
20260507113034 17 0 0.0 4.8 0.00 0.08 0.00 68 1014.0
20260507111531 17 0 0.0 6.4 0.00 0.08 0.00 68 1014.4
20260507110040 16 0 0.0 8.0 0.00 0.08 0.00 70 1014.4
20260507104530 15 197 0.0 4.8 0.00 0.08 0.00 74 1014.5
20260507103038 16 196 0.0 6.4 0.00 0.08 0.00 74 1014.6
20260507101536 16 0 0.0 8.0 0.00 0.08 0.00 75 1014.6
20260507100032 16 0 0.0 4.8 0.00 0.08 0.00 75 1014.6
20260507094535 16 0 0.0 3.2 0.00 0.10 0.00 75 1014.5
20260507093030 15 0 0.0 4.8 0.00 0.10 0.00 76 1014.5
20260507091533 15 196 0.0 6.4 0.00 0.10 0.00 78 1014.4
20260507090029 15 0 1.6 6.4 0.00 0.10 0.00 78 1014.3
20260507084531 13 0 0.0 3.2 0.00 0.10 0.00 80 1014.4
20260507083032 12 0 0.0 3.2 0.00 0.10 0.00 86 1014.4
20260507081537 12 0 0.0 4.8 0.00 0.10 0.00 86 1014.4
20260507080031 13 0 0.0 8.0 0.00 0.10 0.00 86 1014.4
20260507074531 12 0 1.6 6.4 0.00 0.10 0.00 89 1014.4
20260507073031 12 196 0.0 6.4 0.00 0.10 0.00 89 1014.3
20260507071530 12 196 1.6 6.4 0.00 0.10 0.00 90 1014.2
20260507070041 12 0 0.0 1.6 0.00 0.10 0.00 90 1014.0
20260507064530 11 196 0.0 3.2 0.00 0.23 0.00 95 1014.1
20260507063035 10 0 0.0 3.2 0.00 0.23 0.00 96 1013.9
20260507061537 9 0 0.0 3.2 0.00 0.23 0.00 97 1013.9
20260507060032 8 0 0.0 3.2 0.00 0.23 0.00 97 1014.1
20260507054533 8 196 0.0 3.2 0.00 0.33 0.00 97 1014.1
20260507053031 7 0 0.0 4.8 0.00 0.33 0.00 97 1013.9
20260507051532 7 0 0.0 1.6 0.00 0.33 0.00 97 1013.7
20260507050036 6 0 0.0 0.0 0.00 0.33 0.00 97 1013.7
20260507044531 6 0 0.0 1.6 0.00 0.56 0.00 96 1013.6
20260507043030 5 0 0.0 0.0 0.00 0.56 0.00 97 1013.4
20260507041530 5 0 0.0 0.0 0.00 0.56 0.00 96 1013.4
20260507040033 5 0 0.0 0.0 0.00 0.56 0.00 96 1013.5
20260507034540 5 0 0.0 0.0 0.00 0.94 0.00 96 1013.4
20260507033043 6 0 0.0 0.0 0.00 0.94 0.00 96 1013.3
20260507031545 6 0 0.0 0.0 0.00 0.94 0.00 96 1013.2
20260507030033 6 0 0.0 0.0 0.00 0.94 0.00 96 1013.2
20260507024534 6 0 0.0 0.0 0.00 1.17 0.00 96 1013.3
20260507023029 6 0 0.0 0.0 0.00 1.17 0.00 96 1013.2
20260507021533 7 0 0.0 0.0 0.00 1.17 0.00 96 1013.2
20260507020034 7 0 0.0 0.0 0.00 1.17 0.00 96 1013.0
20260507014700 7 0 0.0 0.0 0.00 1.30 0.00 96 1012.9
20260507014541 7 0 0.0 0.0 0.00 1.30 0.00 96 1012.9
20260507013038 8 0 0.0 0.0 0.00 1.30 0.00 96 1012.9
20260507011536 7 0 0.0 1.6 0.00 1.30 0.00 96 1013.0
20260507010040 7 0 0.0 0.0 0.00 1.30 0.00 96 1013.1
20260507004532 7 0 0.0 0.0 0.00 1.32 0.00 95 1013.2
20260507003031 7 0 0.0 0.0 0.00 1.32 0.00 95 1013.3
20260507001534 7 0 0.0 0.0 0.00 1.32 0.00 95 1013.2
20260507000030 8 0 0.0 0.0 0.00 1.32 0.00 95 1012.8
20260506234530 8 0 0.0 0.0 0.00 1.55 0.00 95 1012.9
20260506233030 8 0 0.0 0.0 0.00 1.55 0.00 95 1012.9
20260506231534 8 0 0.0 0.0 0.00 1.55 0.00 95 1012.9
20260506230032 8 0 0.0 0.0 0.00 1.55 0.00 95 1012.8
20260506224531 9 0 0.0 0.0 0.00 1.88 0.00 95 1012.7
20260506223032 9 0 0.0 3.2 0.00 1.88 0.00 95 1012.7
20260506221532 9 0 0.0 4.8 0.00 1.88 0.00 95 1012.8
20260506220032 9 0 0.0 1.6 0.00 1.88 0.00 95 1012.8
20260506214530 10 0 0.0 1.6 0.00 1.91 1.88 95 1012.7
20260506213032 9 196 0.0 3.2 0.00 1.91 1.88 95 1012.6
20260506211530 9 0 0.0 0.0 0.00 1.91 1.88 95 1012.5
20260506210034 10 0 0.0 0.0 0.00 1.91 1.88 95 1012.5
20260506204530 10 0 0.0 0.0 0.00 1.93 1.88 95 1012.5
20260506203038 10 0 0.0 4.8 0.00 1.93 1.88 94 1012.4
20260506201537 10 0 0.0 1.6 0.00 1.93 1.88 94 1012.0
20260506200035 10 0 0.0 0.0 0.00 1.93 1.88 93 1011.9